This is the latest recevied weather packets stored in our database for station/object KB1FFS. If no packets are shown the sender has not sent any weather packets the latest 10 day(s).
| Time | Temp. | Humidity | Pressure | Rain* | Wind** | Luminosity | Snow |
|---|---|---|---|---|---|---|---|
| 1777656118 | 20° C | 50% | 1018.2 hPa | 0 mm | - | 538 W/m² | - |
| 1777655814 | 20° C | 53% | 1018.2 hPa | 0 mm | - | 1084 W/m² | - |
| 1777655511 | 19.44° C | 53% | 1018.5 hPa | 0 mm | - | 861 W/m² | - |
| 1777655208 | 17.78° C | 57% | 1018.3 hPa | 0 mm | - | 828 W/m² | - |
| 1777654905 | 17.78° C | 59% | 1018.5 hPa | 0 mm | - | 379 W/m² | - |
| 1777654602 | 17.22° C | 59% | 1018.2 hPa | 0 mm | - | 232 W/m² | - |
| 1777654299 | 17.78° C | 60% | 1018.5 hPa | 0 mm | - | 174 W/m² | - |
| 1777653998 | 17.78° C | 58% | 1018.5 hPa | 0 mm | - | 264 W/m² | - |
| 1777653694 | 17.22° C | 61% | 1018.4 hPa | 0 mm | - | 378 W/m² | - |
| 1777653390 | 17.22° C | 59% | 1018.5 hPa | 0 mm | - | 243 W/m² | - |
| 1777653088 | 17.22° C | 60% | 1019 hPa | 0 mm | - | 318 W/m² | - |
| 1777652783 | 16.67° C | 62% | 1018.5 hPa | 0 mm | - | 516 W/m² | - |
| 1777652480 | 16.67° C | 64% | 1018.8 hPa | 0 mm | - | 251 W/m² | - |
| 1777652178 | 16.11° C | 65% | 1018.8 hPa | 0 mm | - | 244 W/m² | - |
| 1777651875 | 16.11° C | 65% | 1018.8 hPa | 0 mm | - | 211 W/m² | - |
| 1777651571 | 16.11° C | 66% | 1018.9 hPa | 0 mm | - | 193 W/m² | - |
| 1777651269 | 16.67° C | 69% | 1018.9 hPa | 0 mm | - | 143 W/m² | - |
| 1777650965 | 16.11° C | 72% | 1018.7 hPa | 0 mm | - | 298 W/m² | - |
| 1777650662 | 15.56° C | 72% | 1018.9 hPa | 0 mm | - | 268 W/m² | - |
| 1777650359 | 15.56° C | 73% | 1018.7 hPa | 0 mm | - | 217 W/m² | - |
| 1777650056 | 15.56° C | 73% | 1018.7 hPa | 0 mm | - | 131 W/m² | - |
| 1777649753 | 15.56° C | 72% | 1018.9 hPa | 0 mm | - | 91 W/m² | - |
| 1777649450 | 15.56° C | 72% | 1018.9 hPa | 0 mm | - | 89 W/m² | - |
| 1777649147 | 15° C | 72% | 1018.9 hPa | 0 mm | - | 84 W/m² | - |
| 1777648844 | 15° C | 72% | 1018.9 hPa | 0 mm | - | 82 W/m² | - |
* Rain latest hour (hover to see other rain measurements)
** Current wind speed in m/s (hover to see current wind gust speed)